Home   Weather   Zeitz   Past weeks

Flag for Germany Past Weather in Zeitz, Saxony-Anhalt, Germany — Yesterday and Last 2 Weeks

Now
27 °F

Snow flurries. Low clouds.


Feels Like: 21 °F
Forecast: 21 / 30 °F
Wind: 5 mph from Southwest

Location: Leipzig-Schkeuditz

Current Time: Jan 24, 2017 at 4:30:34 pm

Latest Report: Jan 24, 2017 at 3:50 pm


Visibility: 4 mi

Pressure: 30.39 "Hg

Humidity: 100%

Dew Point: 27 °F

Location of ZeitzLocation

Past Weather in Zeitz — Graph

°F

Zeitz Temperature Yesterday

Maximum temperature yesterday: 25 °F (at 3:50 pm)
Minimum temperature yesterday: 16 °F (at 4:50 am)
Average temperature yesterday: 22 °F

High & Low Weather Summary for the Past Weeks

 TemperatureHumidityPressure
High39 °F (Jan 12, 11:20 am)100% (Jan 11, 3:50 pm)30.74 "Hg (Jan 11, 3:50 pm)
Low16 °F (Jan 19, 7:20 pm)64% (Jan 10, 1:20 pm)29.00 "Hg (Jan 13, 6:20 am)
Average28 °F89%30.16 "Hg
* Reported Jan 9 3:20 pm — Jan 24 3:20 pm, Zeitz, Weather by CustomWeather, © 2017

Note: Actual official high and low records may vary slightly from our data, if they occured in-between our weather recording intervals... More about our weather records

Advertising

Zeitz Weather History for the Previous 24 Hours

Scroll right to see more
 ConditionsComfort  
Time TempWeatherWind HumidityBarometerVisibility
3:20 pm
Tue, Jan 24
27 °FSnow flurries. More clouds than sun.3 mph100%30.39 "Hg5 mi
2:50 pm27 °FSnow flurries. More clouds than sun.3 mph100%30.39 "Hg5 mi
2:20 pm27 °FSnow flurries. More clouds than sun.3 mph100%30.36 "Hg5 mi
1:50 pm27 °FSnow flurries. Low clouds.3 mph100%30.36 "Hg5 mi
1:20 pm27 °FMore clouds than sun.6 mph100%30.36 "HgN/A
12:50 pm27 °FMore clouds than sun.7 mph93%30.36 "Hg5 mi
12:20 pm27 °FLow clouds.7 mph93%30.36 "Hg4 mi
11:50 am27 °FLow clouds.6 mph93%30.36 "Hg4 mi
11:20 am25 °FSnow flurries. Ice fog.5 mph100%30.36 "Hg3 mi
10:50 am25 °FSnow flurries. Ice fog.6 mph100%30.36 "Hg3 mi
10:20 am25 °FSnow flurries. Ice fog.5 mph100%30.36 "Hg2 mi
9:50 am25 °FSnow flurries. Ice fog.3 mph100%30.36 "Hg2 mi
9:20 am25 °FSnow flurries. Ice fog.3 mph100%30.36 "Hg2 mi
8:50 am25 °FSnow flurries. Ice fog.5 mph100%30.33 "Hg2 mi
8:20 am25 °FLight freezing rain. Ice fog.6 mph93%30.33 "Hg2 mi
7:50 am25 °FLight freezing rain. Ice fog.3 mph93%30.33 "Hg2 mi
7:20 am25 °FLight freezing rain. Ice fog.6 mph93%30.30 "Hg2 mi
6:50 am25 °FLight freezing rain. Ice fog.6 mph93%30.30 "Hg2 mi
6:20 am23 °FSnow flurries. Ice fog.6 mph100%30.30 "Hg3 mi
5:50 am23 °FLight freezing rain. Ice fog.7 mph100%30.30 "Hg2 mi
5:20 am23 °FLight freezing rain. Ice fog.8 mph100%30.27 "Hg2 mi
4:50 am23 °FLight freezing rain. Ice fog.8 mph100%30.27 "Hg2 mi
4:20 am23 °FLight freezing rain. Ice fog.8 mph100%30.27 "Hg2 mi
3:50 am23 °FLight freezing rain. Ice fog.7 mph100%30.27 "Hg1 mi
3:20 am23 °FLight freezing rain. Ice fog.5 mph100%30.30 "Hg1 mi
2:50 am23 °FLight freezing rain. Ice fog.6 mph100%30.30 "Hg1 mi
2:20 am23 °FLight freezing rain. Ice fog.6 mph100%30.30 "Hg1 mi
1:50 am23 °FLight freezing rain. Ice fog.6 mph100%30.30 "Hg1 mi
1:20 am23 °FLight freezing rain. Ice fog.6 mph100%30.30 "Hg1 mi
12:50 am23 °FLight freezing rain. Ice fog.5 mph100%30.30 "Hg1 mi
12:20 am23 °FLight freezing rain. Ice fog.6 mph100%30.30 "Hg1 mi
11:50 pm
Mon, Jan 23
23 °FLight freezing rain. Ice fog.6 mph100%30.30 "Hg1 mi
11:20 pm23 °FLight freezing rain. Ice fog.5 mph100%30.30 "Hg1 mi
10:50 pm23 °FLight freezing rain. Ice fog.5 mph100%30.30 "Hg1 mi
10:20 pm23 °FLight freezing rain. Ice fog.6 mph100%30.30 "Hg2 mi
9:50 pm25 °FLight freezing rain. Ice fog.6 mph93%30.30 "Hg2 mi
9:20 pm25 °FLight freezing rain. Ice fog.5 mph93%30.27 "Hg2 mi
8:50 pm25 °FLight freezing rain. Ice fog.5 mph93%30.27 "Hg3 mi
8:20 pm25 °FSnow flurries. Low clouds.6 mph93%30.27 "Hg4 mi
7:50 pm25 °FSnow flurries. Low clouds.3 mph93%30.27 "Hg4 mi
7:20 pm25 °FLow clouds.7 mph93%30.27 "Hg4 mi
6:50 pm25 °FLow clouds.5 mph93%30.27 "Hg4 mi
6:20 pm25 °FIce fog.6 mph93%30.27 "Hg3 mi
5:50 pm25 °FIce fog.6 mph93%30.27 "Hg3 mi
5:20 pm25 °FSnow flurries. Ice fog.5 mph93%30.27 "Hg2 mi
4:50 pm23 °FSnow flurries. Ice fog.7 mph100%30.27 "Hg2 mi
4:20 pm25 °FSnow flurries. Ice fog.3 mph93%30.27 "Hg3 mi
Weather by CustomWeather, © 2017

See weather overviewHow to use our weather pages